Regional Weather Roundup
Issued by NWS

Home | Current Version | Previous Version | Graphics & Text | Print | Product List | Glossary On
Versions: 1 2 3 4 5 6 7 8 9 10 11 12 13 14 15 16 17 18 19 20 21 22 23 24 25 26 27 28 29 30 31 32 33 34 35 36 37 38 39 40 41 42 43 44 45 46 47 48 49 50
000
ASUS43 KOAX 271310
RWRNE

WEATHER ROUNDUP FOR NEBRASKA
NATIONAL WEATHER SERVICE OMAHA NE
700 AM CST FRI FEB 27 2015

NOTES: SATELLITE DATA IS BEING USED TO AUGMENT CLOUD COVER ABOVE
       12000 FEET.
       "FAIR" INDICATES FEW OR NO CLOUDS BELOW 12,000 FEET WITH NO
       SIGNIFICANT WEATHER AND/OR OBSTRUCTIONS TO VISIBILITY.

  * THESE STATIONS DO NOT REPORT WEATHER SUCH AS RAIN...SNOW OR FOG.

NEZ001>004-019>022-054>056-271400-
NEBRASKA PANHANDLE

CITY           SKY/WX    TMP DP  RH WIND       PRES   REMARKS
SCOTTSBLUFF    FLURRIES   7   0  73 SE13      30.19F WCI  -9
ALLIANCE       CLOUDY     2  -4  76 SE9       30.21S WCI -13
CHADRON        CLEAR      5  -3  69 S13       30.24F WCI -12
KIMBALL        LGT SNOW   6   2  86 SE14      30.08S WCI -11
SIDNEY         CLOUDY     4  -1  80 SE10      30.18S WCI -11
$$

NEZ057>060-069>072-079>082-271400-
SOUTHWEST NEBRASKA

CITY           SKY/WX    TMP DP  RH WIND       PRES   REMARKS
NORTH PLATTE   CLOUDY     0  -5  79 E3        30.39F
IMPERIAL       PTCLDY     4  -3  73 SE10      30.32F WCI -11
LEXINGTON      MOCLDY    -1  -6  80 CALM      30.45S
MCCOOK         CLOUDY     9  -1  64 SE8       30.42S WCI  -3
OGALLALA       CLOUDY     6  -1  71 SE10      30.32S WCI  -9
$$

NEZ005>010-023>029-035>040-094-271400-
NORTH CENTRAL NEBRASKA

CITY           SKY/WX    TMP DP  RH WIND       PRES   REMARKS
VALENTINE      CLEAR     -8 -13  78 CALM      30.39S
AINSWORTH      CLEAR     -6 -12  78 S5        30.39S WCI -18
BROKEN BOW     CLEAR     -8 -13  78 CALM      30.43F
O`NEILL        CLEAR     -6 -11  81 SW3       30.47S
ORD            CLEAR     -9 -15  75 SW5       30.48R WCI -20
THEDFORD       CLEAR     -3  -8  79 CALM      30.38S
$$

NEZ041-046>049-061>064-073>077-083>087-271400-
SOUTH CENTRAL NEBRASKA

CITY           SKY/WX    TMP DP  RH WIND       PRES   REMARKS
GRAND ISLAND   CLEAR     -5 -10  79 W5        30.53R WCI -16
AURORA         CLEAR     -6 -11  79 CALM      30.52R
HASTINGS       CLEAR     -2  -6  83 SW5       30.50S WCI -12
HEBRON         PTCLDY    -2  -7  79 CALM      30.58R
HOLDREGE       MOCLDY     1  -6  73 CALM      30.47S
KEARNEY *      CLEAR     -4 -11  71 CALM      30.49S
YORK             N/A     -4  -9  77 N3        30.54S
$$

NEZ011>018-030>034-042>045-271400-
NORTHEAST NEBRASKA

CITY           SKY/WX    TMP DP  RH WIND       PRES   REMARKS
NORFOLK        CLEAR     -6 -12  75 CALM      30.54S
ALBION         CLEAR     -8 -14  76 CALM      30.51S
BLAIR          CLEAR     -3  -8  78 CALM      30.57R
COLUMBUS *     CLEAR     -6 -18  54 CALM      30.56S
FREMONT        CLEAR     -3  -8  78 CALM      30.59S
TEKAMAH        CLEAR     -5 -11  75 NW5       30.61S WCI -16
WAYNE          CLEAR    -10 -15  78 CALM      30.56F
$$

NEZ050>053-065>068-078-088>093-271400-
SOUTHEAST NEBRASKA

CITY           SKY/WX    TMP DP  RH WIND       PRES   REMARKS
LINCOLN        CLEAR     -6 -11  79 N3        30.61R
OMAHA EPPLEY   CLEAR     -1  -7  75 CALM      30.62R
BEATRICE       CLEAR     -4  -8  82 CALM      30.59R
FALLS CITY     CLEAR     -2  -8  76 NW5       30.62R WCI -12
NEBRASKA CITY  CLEAR     -2  -9  71 NW5       30.60R WCI -12
PLATTSMOUTH    CLEAR     -3  -8  80 CALM      30.59R
$$

NEZ044-045-051>053-067-271400-
OMAHA AREA

CITY           SKY/WX    TMP DP  RH WIND       PRES   REMARKS
OMAHA EPPLEY   CLEAR     -1  -7  75 CALM      30.62R
BLAIR          CLEAR     -3  -8  78 CALM      30.57R
FREMONT        CLEAR     -3  -8  78 CALM      30.59S
MILLARD        CLEAR      1  -6  75 NW3       30.61S
OFFUTT AFB     CLEAR     -2  -7  77 NW5       30.60S WCI -12
PLATTSMOUTH    CLEAR     -3  -8  80 CALM      30.59R
WAHOO          FAIR      -4  -9  77 NW5       30.59S WCI -15
$$



USA.gov is the U.S. government's official web portal to all federal, state and local government web resources and services.